Tracking 19847 objects as of 16-Sep-2019
HD Live streaming from Space Station
objects crossing your sky now

COSMOS 249 DEB

Track COSMOS 249 DEB now!
10-day predictions


NORAD ID: 19317
Int'l Code: 1968-091DH
Perigee: 579.3 km
Apogee: 1,675.3 km
Inclination: 62.9 °
Period: 107.7 minutes
Semi major axis: 7498 km
RCS: 0.0014 m2 (small)
Launch date: October 20, 1968
Source: Commonwealth of Independent States (former USSR) (CIS)
Launch site: TYURATAM MISSILE AND SPACE COMPLEX (TTMTR)

Note: This is SATELLITE DEBRIS
aabbcc
Your satellite tracking list
Your tracking list is empty




NASA's NSSDC Master Catalog

Two Line Element Set (TLE):
1 19317U 68091DH  19258.57891258 -.00000051 +00000-0 +25412-4 0  9990
2 19317 062.8515 268.3426 0730833 290.2893 062.1062 13.37077122517067
Source of the keplerian elements: AFSPC